Weather History for Kaneohe MCBH, HI

Change the Weather History Date:

Sunday, July 21, 2013

  Actual Average Record
Temperature  
Mean Temperature 78 °F -  
Max Temperature 82 °F 79 °F 84 °F (2003)
Min Temperature 73 °F 72 °F 73 °F (1997)
Cooling Degree Days 12    
Growing Degree Days 28 (Base 50)    
Moisture  
Dew Point 67 °F    
Average Humidity 70    
Maximum Humidity 83    
Minimum Humidity 59    
Precipitation  
Precipitation 0.00 in - - ()
Sea Level Pressure  
Sea Level Pressure 30.00 in    
Wind  
Wind Speed 8 mph (ENE)    
Max Wind Speed 12 mph    
Max Gust Speed 16 mph    
Visibility 9 miles    
Events      
Averages and records for this station are not official NWS values.
T = Trace of Precipitation, MM = Missing Value Source: NWS Daily Summary

Daily Weather History Graph

Daily Weather History Graph

Search for Another Location

Airport:

Trip Planner

Search our weather history database for the weather conditions in past years. The results will help you decide how hot, cold, wet, or windy it might be!

Date:

Astronomy

Jul. 21, 2013 Rise Set
Actual Time 6:00 AM HST 7:14 PM HST
Civil Twilight 5:35 AM HST 7:38 PM HST
Nautical Twilight 5:07 AM HST 8:07 PM HST
Astronomical Twilight 4:37 AM HST 8:37 PM HST
Moon 6:28 PM HST (7/21) 4:55 AM HST (7/21)
Length of Visible Light 14h 02m
Length of Day
13h 14m
Waxing Gibbous, 99% of the Moon is Illuminated
Jul 21
Waxing Gibbous
Jul 22
Full
Jul 29
Last Quarter
Aug 6
New
Aug 14
First Quarter

Hourly Weather History & Observations

Time (HST) Temp. Heat Index Dew Point Humidity Pressure Visibility Wind Dir Wind Speed Gust Speed Precip Events Conditions
12:57 AM 75.2 °F - 68.0 °F 78% 30.02 in 10.0 mi East 8.1 mph - N/A   Mostly Cloudy
1:57 AM 73.4 °F - 68.0 °F 83% 30.01 in 10.0 mi East 8.1 mph - N/A   Mostly Cloudy
2:57 AM 73.4 °F - 68.0 °F 83% 29.99 in 10.0 mi ENE 8.1 mph - N/A   Overcast
3:31 AM 73.4 °F - 66.2 °F 78% 29.99 in 6.2 mi ENE 10.4 mph - N/A   Scattered Clouds
3:57 AM 73.4 °F - 66.9 °F 80% 29.98 in 10.0 mi East 5.8 mph - N/A   Scattered Clouds
4:04 AM - - - N/A% 29.99 in 6.2 mi East 8.1 mph - N/A   Mostly Cloudy
4:11 AM 73.4 °F - 66.2 °F 78% 29.99 in 6.2 mi East 8.1 mph - N/A   Scattered Clouds
4:57 AM 73.4 °F - 66.9 °F 80% 29.98 in 10.0 mi East 8.1 mph - N/A   Scattered Clouds
5:57 AM 75.2 °F - 68.0 °F 78% 29.98 in 10.0 mi East 9.2 mph - N/A   Scattered Clouds
6:57 AM 77.0 °F - 68.0 °F 74% 29.99 in 10.0 mi East 11.5 mph 16.1 mph N/A   Scattered Clouds
7:57 AM 77.0 °F - 66.9 °F 71% 30.01 in 10.0 mi ENE 6.9 mph - N/A   Mostly Cloudy
8:57 AM 78.8 °F - 66.9 °F 67% 30.02 in 7.0 mi East 9.2 mph - N/A   Mostly Cloudy
9:07 AM - - - N/A% 30.03 in 6.2 mi East 6.9 mph - N/A   Mostly Cloudy
9:14 AM 78.8 °F - 66.2 °F 65% 30.04 in 6.2 mi East 9.2 mph - N/A   Scattered Clouds
9:57 AM 78.8 °F - 66.9 °F 67% 30.02 in 10.0 mi ENE 10.4 mph - N/A   Scattered Clouds
10:57 AM 78.8 °F - 68.0 °F 69% 30.02 in 10.0 mi ENE 10.4 mph 16.1 mph N/A   Scattered Clouds
11:04 AM 80.6 °F 82.7 °F 66.2 °F 61% 30.04 in 6.2 mi ENE 10.4 mph - N/A   Mostly Cloudy
11:57 AM 80.6 °F 82.9 °F 66.9 °F 63% 30.01 in 10.0 mi NE 11.5 mph 16.1 mph N/A   Mostly Cloudy
12:57 PM 80.6 °F 82.9 °F 66.9 °F 63% 29.99 in 10.0 mi ENE 11.5 mph - N/A   Mostly Cloudy
1:57 PM 82.4 °F 84.8 °F 66.9 °F 59% 29.98 in 10.0 mi ENE 10.4 mph - N/A   Mostly Cloudy
2:57 PM 82.4 °F 84.8 °F 66.9 °F 59% 29.98 in 10.0 mi NE 8.1 mph - N/A   Mostly Cloudy
3:57 PM 82.4 °F 84.8 °F 66.9 °F 59% 29.97 in 10.0 mi NE 10.4 mph - N/A   Scattered Clouds
4:57 PM 82.4 °F 84.8 °F 66.9 °F 59% 29.97 in 10.0 mi ENE 6.9 mph - N/A   Partly Cloudy
5:57 PM 80.6 °F 82.9 °F 66.9 °F 63% 29.98 in 10.0 mi ENE 6.9 mph - N/A   Scattered Clouds
6:57 PM 78.8 °F - 64.9 °F 62% 29.99 in 10.0 mi NE 6.9 mph - N/A   Scattered Clouds
7:57 PM 77.0 °F - 66.0 °F 69% 30.01 in 10.0 mi NE 6.9 mph - N/A   Partly Cloudy
8:57 PM 77.0 °F - 66.9 °F 71% 30.02 in 10.0 mi ENE 4.6 mph - N/A   Partly Cloudy
9:57 PM 75.2 °F - 66.0 °F 73% 30.03 in 10.0 mi ENE 6.9 mph - N/A   Scattered Clouds
10:57 PM 75.2 °F - 66.9 °F 75% 30.03 in 10.0 mi ENE 4.6 mph - N/A   Mostly Cloudy
11:57 PM 75.2 °F - 66.9 °F 75% 30.02 in 10.0 mi ENE 4.6 mph - N/A   Mostly Cloudy